Year,Month,Day,Hour,Minute,Value (Times are PST for insolation in W/m^2)
2010,02,02,00,00,0.00
2010,02,02,00,01,0.00
2010,02,02,00,02,0.00
2010,02,02,00,03,0.00
2010,02,02,00,04,0.00
2010,02,02,00,05,0.00
2010,02,02,00,06,0.00
2010,02,02,00,07,0.00
2010,02,02,00,08,0.00
2010,02,02,00,09,0.00
2010,02,02,00,10,0.00
2010,02,02,00,11,0.00
2010,02,02,00,12,0.00
2010,02,02,00,13,0.00
2010,02,02,00,14,0.00
2010,02,02,00,15,0.00
2010,02,02,00,16,0.00
2010,02,02,00,17,0.00
2010,02,02,00,18,0.00
2010,02,02,00,19,0.00
2010,02,02,00,20,0.00
2010,02,02,00,21,0.00
2010,02,02,00,22,0.00
2010,02,02,00,23,0.00
2010,02,02,00,24,0.00
2010,02,02,00,25,0.00
2010,02,02,00,26,0.00
2010,02,02,00,27,0.00
2010,02,02,00,28,0.00
2010,02,02,00,29,0.00
2010,02,02,00,30,0.00
2010,02,02,00,31,0.00
2010,02,02,00,32,0.00
2010,02,02,00,33,0.00
2010,02,02,00,34,0.00
2010,02,02,00,35,0.00
2010,02,02,00,36,0.00
2010,02,02,00,37,0.00
2010,02,02,00,38,0.00
2010,02,02,00,39,0.00
2010,02,02,00,40,0.00
2010,02,02,00,41,0.00
2010,02,02,00,42,0.00
2010,02,02,00,43,0.00
2010,02,02,00,44,0.00
2010,02,02,00,45,0.00
2010,02,02,00,46,0.00
2010,02,02,00,47,0.00
2010,02,02,00,48,0.00
2010,02,02,00,49,0.00
2010,02,02,00,50,0.00
2010,02,02,00,51,0.00
2010,02,02,00,52,0.00
2010,02,02,00,53,0.00
2010,02,02,00,54,0.00
2010,02,02,00,55,0.00
2010,02,02,00,56,0.00
2010,02,02,00,57,0.00
2010,02,02,00,58,0.00
2010,02,02,00,59,0.00
2010,02,02,01,00,0.00
2010,02,02,01,01,0.00
2010,02,02,01,02,0.00
2010,02,02,01,03,0.00
2010,02,02,01,04,0.00
2010,02,02,01,05,0.00
2010,02,02,01,06,0.00
2010,02,02,01,07,0.00
2010,02,02,01,08,0.00
2010,02,02,01,09,0.00
2010,02,02,01,10,0.00
2010,02,02,01,11,0.00
2010,02,02,01,12,0.00
2010,02,02,01,13,0.00
2010,02,02,01,14,0.00
2010,02,02,01,15,0.00
2010,02,02,01,16,0.00
2010,02,02,01,17,0.00
2010,02,02,01,18,0.00
2010,02,02,01,19,0.00
2010,02,02,01,20,0.00
2010,02,02,01,21,0.00
2010,02,02,01,22,0.00
2010,02,02,01,23,0.00
2010,02,02,01,24,0.00
2010,02,02,01,25,0.00
2010,02,02,01,26,0.00
2010,02,02,01,27,0.00
2010,02,02,01,28,0.00
2010,02,02,01,29,0.00
2010,02,02,01,30,0.00
2010,02,02,01,31,0.00
2010,02,02,01,32,0.00
2010,02,02,01,33,0.00
2010,02,02,01,34,0.00
2010,02,02,01,35,0.00
2010,02,02,01,36,0.00
2010,02,02,01,37,0.00
2010,02,02,01,38,0.00
2010,02,02,01,39,0.00
2010,02,02,01,40,0.00
2010,02,02,01,41,0.00
2010,02,02,01,42,0.00
2010,02,02,01,43,0.00
2010,02,02,01,44,0.00
2010,02,02,01,45,0.00
2010,02,02,01,46,0.00
2010,02,02,01,47,0.00
2010,02,02,01,48,0.00
2010,02,02,01,49,0.00
2010,02,02,01,50,0.00
2010,02,02,01,51,0.00
2010,02,02,01,52,0.00
2010,02,02,01,53,0.00
2010,02,02,01,54,0.00
2010,02,02,01,55,0.00
2010,02,02,01,56,0.00
2010,02,02,01,57,0.00
2010,02,02,01,58,0.00
2010,02,02,01,59,0.00
2010,02,02,02,00,0.00
2010,02,02,02,01,0.00
2010,02,02,02,02,0.00
2010,02,02,02,03,0.00
2010,02,02,02,04,0.00
2010,02,02,02,05,0.00
2010,02,02,02,06,0.00
2010,02,02,02,07,0.00
2010,02,02,02,08,0.00
2010,02,02,02,09,0.00
2010,02,02,02,10,0.00
2010,02,02,02,11,0.00
2010,02,02,02,12,0.00
2010,02,02,02,13,0.00
2010,02,02,02,14,0.00
2010,02,02,02,15,0.00
2010,02,02,02,16,0.00
2010,02,02,02,17,0.00
2010,02,02,02,18,0.00
2010,02,02,02,19,0.00
2010,02,02,02,20,0.00
2010,02,02,02,21,0.00
2010,02,02,02,22,0.00
2010,02,02,02,23,0.00
2010,02,02,02,24,0.00
2010,02,02,02,25,0.00
2010,02,02,02,26,0.00
2010,02,02,02,27,0.00
2010,02,02,02,28,0.00
2010,02,02,02,29,0.00
2010,02,02,02,30,0.00
2010,02,02,02,31,0.00
2010,02,02,02,32,0.00
2010,02,02,02,33,0.00
2010,02,02,02,34,0.00
2010,02,02,02,35,0.00
2010,02,02,02,36,0.00
2010,02,02,02,37,0.00
2010,02,02,02,38,0.00
2010,02,02,02,39,0.00
2010,02,02,02,40,0.00
2010,02,02,02,41,0.00
2010,02,02,02,42,0.00
2010,02,02,02,43,0.00
2010,02,02,02,44,0.00
2010,02,02,02,45,0.00
2010,02,02,02,46,0.00
2010,02,02,02,47,0.00
2010,02,02,02,48,0.00
2010,02,02,02,49,0.00
2010,02,02,02,50,0.00
2010,02,02,02,51,0.00
2010,02,02,02,52,0.00
2010,02,02,02,53,0.00
2010,02,02,02,54,0.00
2010,02,02,02,55,0.00
2010,02,02,02,56,0.00
2010,02,02,02,57,0.00
2010,02,02,02,58,0.00
2010,02,02,02,59,0.00
2010,02,02,03,00,0.00
2010,02,02,03,01,0.00
2010,02,02,03,02,0.00
2010,02,02,03,03,0.00
2010,02,02,03,04,0.00
2010,02,02,03,05,0.00
2010,02,02,03,06,0.00
2010,02,02,03,07,0.00
2010,02,02,03,08,0.00
2010,02,02,03,09,0.00
2010,02,02,03,10,0.00
2010,02,02,03,11,0.00
2010,02,02,03,12,0.00
2010,02,02,03,13,0.00
2010,02,02,03,14,0.00
2010,02,02,03,15,0.00
2010,02,02,03,16,0.00
2010,02,02,03,17,0.00
2010,02,02,03,18,0.00
2010,02,02,03,19,0.00
2010,02,02,03,20,0.00
2010,02,02,03,21,0.00
2010,02,02,03,22,0.00
2010,02,02,03,23,0.00
2010,02,02,03,24,0.00
2010,02,02,03,25,0.00
2010,02,02,03,26,0.00
2010,02,02,03,27,0.00
2010,02,02,03,28,0.00
2010,02,02,03,29,0.00
2010,02,02,03,30,0.00
2010,02,02,03,31,0.00
2010,02,02,03,32,0.00
2010,02,02,03,33,0.00
2010,02,02,03,34,0.00
2010,02,02,03,35,0.00
2010,02,02,03,36,0.00
2010,02,02,03,37,0.00
2010,02,02,03,38,0.00
2010,02,02,03,39,0.00
2010,02,02,03,40,0.00
2010,02,02,03,41,0.00
2010,02,02,03,42,0.00
2010,02,02,03,43,0.00
2010,02,02,03,44,0.00
2010,02,02,03,45,0.00
2010,02,02,03,46,0.00
2010,02,02,03,47,0.00
2010,02,02,03,48,0.00
2010,02,02,03,49,0.00
2010,02,02,03,50,0.00
2010,02,02,03,51,0.00
2010,02,02,03,52,0.00
2010,02,02,03,53,0.00
2010,02,02,03,54,0.00
2010,02,02,03,55,0.00
2010,02,02,03,56,0.00
2010,02,02,03,57,0.00
2010,02,02,03,58,0.00
2010,02,02,03,59,0.00
2010,02,02,04,00,0.00
2010,02,02,04,01,0.00
2010,02,02,04,02,0.00
2010,02,02,04,03,0.00
2010,02,02,04,04,0.00
2010,02,02,04,05,0.00
2010,02,02,04,06,0.00
2010,02,02,04,07,0.00
2010,02,02,04,08,0.00
2010,02,02,04,09,0.00
2010,02,02,04,10,0.00
2010,02,02,04,11,0.00
2010,02,02,04,12,0.00
2010,02,02,04,13,0.00
2010,02,02,04,14,0.00
2010,02,02,04,15,0.00
2010,02,02,04,16,0.00
2010,02,02,04,17,0.00
2010,02,02,04,18,0.00
2010,02,02,04,19,0.00
2010,02,02,04,20,0.00
2010,02,02,04,21,0.00
2010,02,02,04,22,0.00
2010,02,02,04,23,0.00
2010,02,02,04,24,0.00
2010,02,02,04,25,0.00
2010,02,02,04,26,0.00
2010,02,02,04,27,0.00
2010,02,02,04,28,0.00
2010,02,02,04,29,0.00
2010,02,02,04,30,0.00
2010,02,02,04,31,0.00
2010,02,02,04,32,0.00
2010,02,02,04,33,0.00
2010,02,02,04,34,0.00
2010,02,02,04,35,0.00
2010,02,02,04,36,0.00
2010,02,02,04,37,0.00
2010,02,02,04,38,0.00
2010,02,02,04,39,0.00
2010,02,02,04,40,0.00
2010,02,02,04,41,0.00
2010,02,02,04,42,0.00
2010,02,02,04,43,0.00
2010,02,02,04,44,0.00
2010,02,02,04,45,0.00
2010,02,02,04,46,0.00
2010,02,02,04,47,0.00
2010,02,02,04,48,0.00
2010,02,02,04,49,0.00
2010,02,02,04,50,0.00
2010,02,02,04,51,0.00
2010,02,02,04,52,0.00
2010,02,02,04,53,0.00
2010,02,02,04,54,0.00
2010,02,02,04,55,0.00
2010,02,02,04,56,0.00
2010,02,02,04,57,0.00
2010,02,02,04,58,0.00
2010,02,02,04,59,0.00
2010,02,02,05,00,0.00
2010,02,02,05,01,0.00
2010,02,02,05,02,0.00
2010,02,02,05,03,0.00
2010,02,02,05,04,0.00
2010,02,02,05,05,0.00
2010,02,02,05,06,0.00
2010,02,02,05,07,0.00
2010,02,02,05,08,0.00
2010,02,02,05,09,0.00
2010,02,02,05,10,0.00
2010,02,02,05,11,0.00
2010,02,02,05,12,0.00
2010,02,02,05,13,0.00
2010,02,02,05,14,0.00
2010,02,02,05,15,0.00
2010,02,02,05,16,0.00
2010,02,02,05,17,0.00
2010,02,02,05,18,0.00
2010,02,02,05,19,0.00
2010,02,02,05,20,0.00
2010,02,02,05,21,0.00
2010,02,02,05,22,0.00
2010,02,02,05,23,0.00
2010,02,02,05,24,0.00
2010,02,02,05,25,0.00
2010,02,02,05,26,0.00
2010,02,02,05,27,0.00
2010,02,02,05,28,0.00
2010,02,02,05,29,0.00
2010,02,02,05,30,0.00
2010,02,02,05,31,0.00
2010,02,02,05,32,0.00
2010,02,02,05,33,0.00
2010,02,02,05,34,0.00
2010,02,02,05,35,0.00
2010,02,02,05,36,0.00
2010,02,02,05,37,0.00
2010,02,02,05,38,0.00
2010,02,02,05,39,0.00
2010,02,02,05,40,0.00
2010,02,02,05,41,0.00
2010,02,02,05,42,0.00
2010,02,02,05,43,0.00
2010,02,02,05,44,0.00
2010,02,02,05,45,0.00
2010,02,02,05,46,0.00
2010,02,02,05,47,0.00
2010,02,02,05,48,0.00
2010,02,02,05,49,0.00
2010,02,02,05,50,0.00
2010,02,02,05,51,0.00
2010,02,02,05,52,0.00
2010,02,02,05,53,0.00
2010,02,02,05,54,0.00
2010,02,02,05,55,0.00
2010,02,02,05,56,0.00
2010,02,02,05,57,0.00
2010,02,02,05,58,0.00
2010,02,02,05,59,0.00
2010,02,02,06,00,0.00
2010,02,02,06,01,0.00
2010,02,02,06,02,0.00
2010,02,02,06,03,0.00
2010,02,02,06,04,0.00
2010,02,02,06,05,0.00
2010,02,02,06,06,0.00
2010,02,02,06,07,0.00
2010,02,02,06,08,0.00
2010,02,02,06,09,0.00
2010,02,02,06,10,0.00
2010,02,02,06,11,0.00
2010,02,02,06,12,0.00
2010,02,02,06,13,0.00
2010,02,02,06,14,0.00
2010,02,02,06,15,0.00
2010,02,02,06,16,0.00
2010,02,02,06,17,0.00
2010,02,02,06,18,0.00
2010,02,02,06,19,0.00
2010,02,02,06,20,0.00
2010,02,02,06,21,0.00
2010,02,02,06,22,0.00
2010,02,02,06,23,0.00
2010,02,02,06,24,0.00
2010,02,02,06,25,0.00
2010,02,02,06,26,0.00
2010,02,02,06,27,0.00
2010,02,02,06,28,0.00
2010,02,02,06,29,0.00
2010,02,02,06,30,0.00
2010,02,02,06,31,0.00
2010,02,02,06,32,0.00
2010,02,02,06,33,0.00
2010,02,02,06,34,0.00
2010,02,02,06,35,0.00
2010,02,02,06,36,0.00
2010,02,02,06,37,0.00
2010,02,02,06,38,0.00
2010,02,02,06,39,0.00
2010,02,02,06,40,0.00
2010,02,02,06,41,0.00
2010,02,02,06,42,0.00
2010,02,02,06,43,0.00
2010,02,02,06,44,0.00
2010,02,02,06,45,0.00
2010,02,02,06,46,0.00
2010,02,02,06,47,0.00
2010,02,02,06,48,0.00
2010,02,02,06,49,0.00
2010,02,02,06,50,0.00
2010,02,02,06,51,0.00
2010,02,02,06,52,0.00
2010,02,02,06,53,0.00
2010,02,02,06,54,0.00
2010,02,02,06,55,0.00
2010,02,02,06,56,0.00
2010,02,02,06,57,0.00
2010,02,02,06,58,0.00
2010,02,02,06,59,0.00
2010,02,02,07,00,0.00
2010,02,02,07,01,0.00
2010,02,02,07,02,0.00
2010,02,02,07,03,0.00
2010,02,02,07,04,0.00
2010,02,02,07,05,0.00
2010,02,02,07,06,0.00
2010,02,02,07,07,0.00
2010,02,02,07,08,0.00
2010,02,02,07,09,0.00
2010,02,02,07,10,0.00
2010,02,02,07,11,0.00
2010,02,02,07,12,0.00
2010,02,02,07,13,0.00
2010,02,02,07,14,0.00
2010,02,02,07,15,0.00
2010,02,02,07,16,0.00
2010,02,02,07,17,0.00
2010,02,02,07,18,0.00
2010,02,02,07,19,0.00
2010,02,02,07,20,0.00
2010,02,02,07,21,0.00
2010,02,02,07,22,0.00
2010,02,02,07,23,0.00
2010,02,02,07,24,0.00
2010,02,02,07,25,0.00
2010,02,02,07,26,0.00
2010,02,02,07,27,0.00
2010,02,02,07,28,0.00
2010,02,02,07,29,0.00
2010,02,02,07,30,0.00
2010,02,02,07,31,0.00
2010,02,02,07,32,0.00
2010,02,02,07,33,0.00
2010,02,02,07,34,0.00
2010,02,02,07,35,0.00
2010,02,02,07,36,0.00
2010,02,02,07,37,0.00
2010,02,02,07,38,0.00
2010,02,02,07,39,0.00
2010,02,02,07,40,0.00
2010,02,02,07,41,0.00
2010,02,02,07,42,0.00
2010,02,02,07,43,0.00
2010,02,02,07,44,0.00
2010,02,02,07,45,0.00
2010,02,02,07,46,0.00
2010,02,02,07,47,0.00
2010,02,02,07,48,0.00
2010,02,02,07,49,3.50
2010,02,02,07,50,5.00
2010,02,02,07,51,5.20
2010,02,02,07,52,7.00
2010,02,02,07,53,7.00
2010,02,02,07,54,7.00
2010,02,02,07,55,7.00
2010,02,02,07,56,7.00
2010,02,02,07,57,7.00
2010,02,02,07,58,5.10
2010,02,02,07,59,5.00
2010,02,02,08,00,3.40
2010,02,02,08,01,0.00
2010,02,02,08,02,0.00
2010,02,02,08,03,0.00
2010,02,02,08,04,0.00
2010,02,02,08,05,4.70
2010,02,02,08,06,5.00
2010,02,02,08,07,5.70
2010,02,02,08,08,7.00
2010,02,02,08,09,9.30
2010,02,02,08,10,11.70
2010,02,02,08,11,12.00
2010,02,02,08,12,13.90
2010,02,02,08,13,14.00
2010,02,02,08,14,14.00
2010,02,02,08,15,14.00
2010,02,02,08,16,12.80
2010,02,02,08,17,12.00
2010,02,02,08,18,12.00
2010,02,02,08,19,12.00
2010,02,02,08,20,12.40
2010,02,02,08,21,14.00
2010,02,02,08,22,14.00
2010,02,02,08,23,14.00
2010,02,02,08,24,14.00
2010,02,02,08,25,14.00
2010,02,02,08,26,14.00
2010,02,02,08,27,14.30
2010,02,02,08,28,16.00
2010,02,02,08,29,17.40
2010,02,02,08,30,19.00
2010,02,02,08,31,19.00
2010,02,02,08,32,19.00
2010,02,02,08,33,18.10
2010,02,02,08,34,18.00
2010,02,02,08,35,18.00
2010,02,02,08,36,18.40
2010,02,02,08,37,19.00
2010,02,02,08,38,20.50
2010,02,02,08,39,21.00
2010,02,02,08,40,21.00
2010,02,02,08,41,21.00
2010,02,02,08,42,21.00
2010,02,02,08,43,21.00
2010,02,02,08,44,21.00
2010,02,02,08,45,21.00
2010,02,02,08,46,19.40
2010,02,02,08,47,17.90
2010,02,02,08,48,16.40
2010,02,02,08,49,18.30
2010,02,02,08,50,21.70
2010,02,02,08,51,25.60
2010,02,02,08,52,30.80
2010,02,02,08,53,38.90
2010,02,02,08,54,47.20
2010,02,02,08,55,56.40
2010,02,02,08,56,78.10
2010,02,02,08,57,99.70
2010,02,02,08,58,100.40
2010,02,02,08,59,97.70
2010,02,02,09,00,102.80
2010,02,02,09,01,95.80
2010,02,02,09,02,81.80
2010,02,02,09,03,82.40
2010,02,02,09,04,69.40
2010,02,02,09,05,59.20
2010,02,02,09,06,53.90
2010,02,02,09,07,51.30
2010,02,02,09,08,49.20
2010,02,02,09,09,47.50
2010,02,02,09,10,41.40
2010,02,02,09,11,39.50
2010,02,02,09,12,39.60
2010,02,02,09,13,40.00
2010,02,02,09,14,40.00
2010,02,02,09,15,40.00
2010,02,02,09,16,40.00
2010,02,02,09,17,40.60
2010,02,02,09,18,42.80
2010,02,02,09,19,46.80
2010,02,02,09,20,52.50
2010,02,02,09,21,60.70
2010,02,02,09,22,69.90
2010,02,02,09,23,78.10
2010,02,02,09,24,85.20
2010,02,02,09,25,90.10
2010,02,02,09,26,95.40
2010,02,02,09,27,97.70
2010,02,02,09,28,99.70
2010,02,02,09,29,98.10
2010,02,02,09,30,94.70
2010,02,02,09,31,91.30
2010,02,02,09,32,86.30
2010,02,02,09,33,86.50
2010,02,02,09,34,91.50
2010,02,02,09,35,93.00
2010,02,02,09,36,102.70
2010,02,02,09,37,92.20
2010,02,02,09,38,97.90
2010,02,02,09,39,100.80
2010,02,02,09,40,100.90
2010,02,02,09,41,102.90
2010,02,02,09,42,114.10
2010,02,02,09,43,135.10
2010,02,02,09,44,159.20
2010,02,02,09,45,175.20
2010,02,02,09,46,171.20
2010,02,02,09,47,150.80
2010,02,02,09,48,143.30
2010,02,02,09,49,133.90
2010,02,02,09,50,123.20
2010,02,02,09,51,120.00
2010,02,02,09,52,120.30
2010,02,02,09,53,121.90
2010,02,02,09,54,124.20
2010,02,02,09,55,138.00
2010,02,02,09,56,174.00
2010,02,02,09,57,181.30
2010,02,02,09,58,186.00
2010,02,02,09,59,174.00
2010,02,02,10,00,157.40
2010,02,02,10,01,175.90
2010,02,02,10,02,183.70
2010,02,02,10,03,185.80
2010,02,02,10,04,190.50
2010,02,02,10,05,203.20
2010,02,02,10,06,261.20
2010,02,02,10,07,281.30
2010,02,02,10,08,240.90
2010,02,02,10,09,293.90
2010,02,02,10,10,267.20
2010,02,02,10,11,307.00
2010,02,02,10,12,325.00
2010,02,02,10,13,266.30
2010,02,02,10,14,240.60
2010,02,02,10,15,253.50
2010,02,02,10,16,288.00
2010,02,02,10,17,168.40
2010,02,02,10,18,128.90
2010,02,02,10,19,127.00
2010,02,02,10,20,126.40
2010,02,02,10,21,119.60
2010,02,02,10,22,106.40
2010,02,02,10,23,94.30
2010,02,02,10,24,85.10
2010,02,02,10,25,80.90
2010,02,02,10,26,79.80
2010,02,02,10,27,83.90
2010,02,02,10,28,86.00
2010,02,02,10,29,83.00
2010,02,02,10,30,79.60
2010,02,02,10,31,86.20
2010,02,02,10,32,110.50
2010,02,02,10,33,146.00
2010,02,02,10,34,169.80
2010,02,02,10,35,214.00
2010,02,02,10,36,287.50
2010,02,02,10,37,315.70
2010,02,02,10,38,243.40
2010,02,02,10,39,249.10
2010,02,02,10,40,271.40
2010,02,02,10,41,357.00
2010,02,02,10,42,323.70
2010,02,02,10,43,283.00
2010,02,02,10,44,283.00
2010,02,02,10,45,198.00
2010,02,02,10,46,198.30
2010,02,02,10,47,202.00
2010,02,02,10,48,201.10
2010,02,02,10,49,198.10
2010,02,02,10,50,200.00
2010,02,02,10,51,217.70
2010,02,02,10,52,246.10
2010,02,02,10,53,295.80
2010,02,02,10,54,360.60
2010,02,02,10,55,338.00
2010,02,02,10,56,300.90
2010,02,02,10,57,285.40
2010,02,02,10,58,362.90
2010,02,02,10,59,334.50
2010,02,02,11,00,368.10
2010,02,02,11,01,431.40
2010,02,02,11,02,427.00
2010,02,02,11,03,401.00
2010,02,02,11,04,426.20
2010,02,02,11,05,443.00
2010,02,02,11,06,429.50
2010,02,02,11,07,425.50
2010,02,02,11,08,392.80
2010,02,02,11,09,382.30
2010,02,02,11,10,390.40
2010,02,02,11,11,398.20
2010,02,02,11,12,397.70
2010,02,02,11,13,392.80
2010,02,02,11,14,396.30
2010,02,02,11,15,387.50
2010,02,02,11,16,384.40
2010,02,02,11,17,390.20
2010,02,02,11,18,399.00
2010,02,02,11,19,401.70
2010,02,02,11,20,403.80
2010,02,02,11,21,404.20
2010,02,02,11,22,404.90
2010,02,02,11,23,395.30
2010,02,02,11,24,387.50
2010,02,02,11,25,389.10
2010,02,02,11,26,396.30
2010,02,02,11,27,414.20
2010,02,02,11,28,324.00
2010,02,02,11,29,251.00
2010,02,02,11,30,309.50
2010,02,02,11,31,416.60
2010,02,02,11,32,415.00
2010,02,02,11,33,410.10
2010,02,02,11,34,408.00
2010,02,02,11,35,402.30
2010,02,02,11,36,385.00
2010,02,02,11,37,381.90
2010,02,02,11,38,371.80
2010,02,02,11,39,360.90
2010,02,02,11,40,343.70
2010,02,02,11,41,330.40
2010,02,02,11,42,324.40
2010,02,02,11,43,346.00
2010,02,02,11,44,404.40
2010,02,02,11,45,437.70
2010,02,02,11,46,432.80
2010,02,02,11,47,448.70
2010,02,02,11,48,455.90
2010,02,02,11,49,460.70
2010,02,02,11,50,436.50
2010,02,02,11,51,327.80
2010,02,02,11,52,346.00
2010,02,02,11,53,287.10
2010,02,02,11,54,256.30
2010,02,02,11,55,272.60
2010,02,02,11,56,239.40
2010,02,02,11,57,224.00
2010,02,02,11,58,221.10
2010,02,02,11,59,229.20
2010,02,02,12,00,260.30
2010,02,02,12,01,267.30
2010,02,02,12,02,248.50
2010,02,02,12,03,246.00
2010,02,02,12,04,239.60
2010,02,02,12,05,213.70
2010,02,02,12,06,212.10
2010,02,02,12,07,208.70
2010,02,02,12,08,218.20
2010,02,02,12,09,232.30
2010,02,02,12,10,235.60
2010,02,02,12,11,280.80
2010,02,02,12,12,235.40
2010,02,02,12,13,230.70
2010,02,02,12,14,219.50
2010,02,02,12,15,211.90
2010,02,02,12,16,211.00
2010,02,02,12,17,210.40
2010,02,02,12,18,198.40
2010,02,02,12,19,189.90
2010,02,02,12,20,182.30
2010,02,02,12,21,177.20
2010,02,02,12,22,182.20
2010,02,02,12,23,185.00
2010,02,02,12,24,241.40
2010,02,02,12,25,256.20
2010,02,02,12,26,264.60
2010,02,02,12,27,220.00
2010,02,02,12,28,210.20
2010,02,02,12,29,208.30
2010,02,02,12,30,201.30
2010,02,02,12,31,200.60
2010,02,02,12,32,217.30
2010,02,02,12,33,248.10
2010,02,02,12,34,265.10
2010,02,02,12,35,250.00
2010,02,02,12,36,214.90
2010,02,02,12,37,200.20
2010,02,02,12,38,182.90
2010,02,02,12,39,173.60
2010,02,02,12,40,174.30
2010,02,02,12,41,183.60
2010,02,02,12,42,202.60
2010,02,02,12,43,215.90
2010,02,02,12,44,202.70
2010,02,02,12,45,265.20
2010,02,02,12,46,233.30
2010,02,02,12,47,239.00
2010,02,02,12,48,269.30
2010,02,02,12,49,276.70
2010,02,02,12,50,249.30
2010,02,02,12,51,253.60
2010,02,02,12,52,250.60
2010,02,02,12,53,234.00
2010,02,02,12,54,211.60
2010,02,02,12,55,211.90
2010,02,02,12,56,227.30
2010,02,02,12,57,234.00
2010,02,02,12,58,234.00
2010,02,02,12,59,234.00
2010,02,02,13,00,238.60
2010,02,02,13,01,257.00
2010,02,02,13,02,242.60
2010,02,02,13,03,239.50
2010,02,02,13,04,250.00
2010,02,02,13,05,424.40
2010,02,02,13,06,446.30
2010,02,02,13,07,230.10
2010,02,02,13,08,234.00
2010,02,02,13,09,330.60
2010,02,02,13,10,438.00
2010,02,02,13,11,265.80
2010,02,02,13,12,180.90
2010,02,02,13,13,172.70
2010,02,02,13,14,178.80
2010,02,02,13,15,183.60
2010,02,02,13,16,185.40
2010,02,02,13,17,195.60
2010,02,02,13,18,236.90
2010,02,02,13,19,250.00
2010,02,02,13,20,473.00
2010,02,02,13,21,473.00
2010,02,02,13,22,390.00
2010,02,02,13,23,228.00
2010,02,02,13,24,209.40
2010,02,02,13,25,222.40
2010,02,02,13,26,229.00
2010,02,02,13,27,176.10
2010,02,02,13,28,157.00
2010,02,02,13,29,154.60
2010,02,02,13,30,154.10
2010,02,02,13,31,146.10
2010,02,02,13,32,140.50
2010,02,02,13,33,156.90
2010,02,02,13,34,115.90
2010,02,02,13,35,102.70
2010,02,02,13,36,97.00
2010,02,02,13,37,95.10
2010,02,02,13,38,95.90
2010,02,02,13,39,104.30
2010,02,02,13,40,107.00
2010,02,02,13,41,114.50
2010,02,02,13,42,103.50
2010,02,02,13,43,95.80
2010,02,02,13,44,88.90
2010,02,02,13,45,87.20
2010,02,02,13,46,88.00
2010,02,02,13,47,96.40
2010,02,02,13,48,86.00
2010,02,02,13,49,72.60
2010,02,02,13,50,65.60
2010,02,02,13,51,61.70
2010,02,02,13,52,61.20
2010,02,02,13,53,62.70
2010,02,02,13,54,63.00
2010,02,02,13,55,62.90
2010,02,02,13,56,61.20
2010,02,02,13,57,58.00
2010,02,02,13,58,55.00
2010,02,02,13,59,52.20
2010,02,02,14,00,53.00
2010,02,02,14,01,53.00
2010,02,02,14,02,54.80
2010,02,02,14,03,63.90
2010,02,02,14,04,78.20
2010,02,02,14,05,92.50
2010,02,02,14,06,101.50
2010,02,02,14,07,101.30
2010,02,02,14,08,110.90
2010,02,02,14,09,117.80
2010,02,02,14,10,118.40
2010,02,02,14,11,119.30
2010,02,02,14,12,113.70
2010,02,02,14,13,102.70
2010,02,02,14,14,90.60
2010,02,02,14,15,82.10
2010,02,02,14,16,74.00
2010,02,02,14,17,66.20
2010,02,02,14,18,62.10
2010,02,02,14,19,59.10
2010,02,02,14,20,58.00
2010,02,02,14,21,60.70
2010,02,02,14,22,66.20
2010,02,02,14,23,68.10
2010,02,02,14,24,88.00
2010,02,02,14,25,89.80
2010,02,02,14,26,93.00
2010,02,02,14,27,93.00
2010,02,02,14,28,94.40
2010,02,02,14,29,95.00
2010,02,02,14,30,95.00
2010,02,02,14,31,94.60
2010,02,02,14,32,94.80
2010,02,02,14,33,100.80
2010,02,02,14,34,109.20
2010,02,02,14,35,123.30
2010,02,02,14,36,139.10
2010,02,02,14,37,155.50
2010,02,02,14,38,160.60
2010,02,02,14,39,165.80
2010,02,02,14,40,176.10
2010,02,02,14,41,175.80
2010,02,02,14,42,161.80
2010,02,02,14,43,149.60
2010,02,02,14,44,145.20
2010,02,02,14,45,135.90
2010,02,02,14,46,128.40
2010,02,02,14,47,122.60
2010,02,02,14,48,117.60
2010,02,02,14,49,113.90
2010,02,02,14,50,113.00
2010,02,02,14,51,110.60
2010,02,02,14,52,107.40
2010,02,02,14,53,109.70
2010,02,02,14,54,110.10
2010,02,02,14,55,104.90
2010,02,02,14,56,95.70
2010,02,02,14,57,91.40
2010,02,02,14,58,91.00
2010,02,02,14,59,92.20
2010,02,02,15,00,99.40
2010,02,02,15,01,106.90
2010,02,02,15,02,106.70
2010,02,02,15,03,104.30
2010,02,02,15,04,102.40
2010,02,02,15,05,99.80
2010,02,02,15,06,97.20
2010,02,02,15,07,98.00
2010,02,02,15,08,99.90
2010,02,02,15,09,102.00
2010,02,02,15,10,102.00
2010,02,02,15,11,103.60
2010,02,02,15,12,107.40
2010,02,02,15,13,110.60
2010,02,02,15,14,110.20
2010,02,02,15,15,113.00
2010,02,02,15,16,119.00
2010,02,02,15,17,120.90
2010,02,02,15,18,118.30
2010,02,02,15,19,116.10
2010,02,02,15,20,114.60
2010,02,02,15,21,108.40
2010,02,02,15,22,106.10
2010,02,02,15,23,106.20
2010,02,02,15,24,109.70
2010,02,02,15,25,120.60
2010,02,02,15,26,119.20
2010,02,02,15,27,111.40
2010,02,02,15,28,111.60
2010,02,02,15,29,108.10
2010,02,02,15,30,107.00
2010,02,02,15,31,108.50
2010,02,02,15,32,109.00
2010,02,02,15,33,119.60
2010,02,02,15,34,123.00
2010,02,02,15,35,123.00
2010,02,02,15,36,123.80
2010,02,02,15,37,123.80
2010,02,02,15,38,117.80
2010,02,02,15,39,114.30
2010,02,02,15,40,116.80
2010,02,02,15,41,106.00
2010,02,02,15,42,102.00
2010,02,02,15,43,102.00
2010,02,02,15,44,102.00
2010,02,02,15,45,108.60
2010,02,02,15,46,112.70
2010,02,02,15,47,110.70
2010,02,02,15,48,107.40
2010,02,02,15,49,110.30
2010,02,02,15,50,113.00
2010,02,02,15,51,113.00
2010,02,02,15,52,113.80
2010,02,02,15,53,114.00
2010,02,02,15,54,116.30
2010,02,02,15,55,125.20
2010,02,02,15,56,142.60
2010,02,02,15,57,146.00
2010,02,02,15,58,146.00
2010,02,02,15,59,143.10
2010,02,02,16,00,134.00
2010,02,02,16,01,121.20
2010,02,02,16,02,117.60
2010,02,02,16,03,115.30
2010,02,02,16,04,113.60
2010,02,02,16,05,111.80
2010,02,02,16,06,111.00
2010,02,02,16,07,107.60
2010,02,02,16,08,104.70
2010,02,02,16,09,100.90
2010,02,02,16,10,97.00
2010,02,02,16,11,92.70
2010,02,02,16,12,85.00
2010,02,02,16,13,78.80
2010,02,02,16,14,71.10
2010,02,02,16,15,64.90
2010,02,02,16,16,62.00
2010,02,02,16,17,62.00
2010,02,02,16,18,61.10
2010,02,02,16,19,57.50
2010,02,02,16,20,54.50
2010,02,02,16,21,51.50
2010,02,02,16,22,48.90
2010,02,02,16,23,46.40
2010,02,02,16,24,43.30
2010,02,02,16,25,41.10
2010,02,02,16,26,38.20
2010,02,02,16,27,35.60
2010,02,02,16,28,33.30
2010,02,02,16,29,31.90
2010,02,02,16,30,29.60
2010,02,02,16,31,28.00
2010,02,02,16,32,27.10
2010,02,02,16,33,26.00
2010,02,02,16,34,26.00
2010,02,02,16,35,26.00
2010,02,02,16,36,26.00
2010,02,02,16,37,25.00
2010,02,02,16,38,25.00
2010,02,02,16,39,24.10
2010,02,02,16,40,23.00
2010,02,02,16,41,23.00
2010,02,02,16,42,21.30
2010,02,02,16,43,20.90
2010,02,02,16,44,19.00
2010,02,02,16,45,19.00
2010,02,02,16,46,18.50
2010,02,02,16,47,18.00
2010,02,02,16,48,16.60
2010,02,02,16,49,16.00
2010,02,02,16,50,15.90
2010,02,02,16,51,14.00
2010,02,02,16,52,14.00
2010,02,02,16,53,14.00
2010,02,02,16,54,12.90
2010,02,02,16,55,12.00
2010,02,02,16,56,12.00
2010,02,02,16,57,12.00
2010,02,02,16,58,12.00
2010,02,02,16,59,12.00
2010,02,02,17,00,12.00
2010,02,02,17,01,12.00
2010,02,02,17,02,11.30
2010,02,02,17,03,11.00
2010,02,02,17,04,11.00
2010,02,02,17,05,10.60
2010,02,02,17,06,9.00
2010,02,02,17,07,8.10
2010,02,02,17,08,7.00
2010,02,02,17,09,7.00
2010,02,02,17,10,5.30
2010,02,02,17,11,5.00
2010,02,02,17,12,4.00
2010,02,02,17,13,0.00
2010,02,02,17,14,0.00
2010,02,02,17,15,0.00
2010,02,02,17,16,0.00
2010,02,02,17,17,0.00
2010,02,02,17,18,0.00
2010,02,02,17,19,0.00
2010,02,02,17,20,0.00
2010,02,02,17,21,0.00
2010,02,02,17,22,0.00
2010,02,02,17,23,0.00
2010,02,02,17,24,0.00
2010,02,02,17,25,0.00
2010,02,02,17,26,0.00
2010,02,02,17,27,0.00